Regional Weather Roundup
Issued by NWS

Home | Current Version | Previous Version | Text Only | Print | Product List | Glossary On
Versions: 1 2 3 4 5 6 7 8 9 10 11 12 13 14 15 16 17 18 19 20 21 22 23 24 25 26 27 28 29 30 31 32 33 34 35 36 37 38 39 40 41 42 43 44 45 46 47 48 49 50
000
ASUS43 KDTX 060810
RWRMI
MICHIGAN HOURLY REGIONAL WEATHER ROUNDUP
NATIONAL WEATHER SERVICE DETROIT/PONTIAC MI
300 AM EST FRI MAR 06 2015

NOTE: "FAIR" INDICATES FEW OR NO CLOUDS BELOW 12,000 FEET WITH NO
SIGNIFICANT WEATHER AND/OR OBSTRUCTION TO VISIBILITY.

MIZ047>049-052>055-059>063-066>070-074>076-081>083-060900-
SOUTHEAST LOWER MICHIGAN

CITY           SKY/WX    TMP DP  RH WIND       PRES   REMARKS
ADRIAN         PTCLDY    -3  -7  82 CALM      30.51R
ALMA           MOCLDY     1  -1  89 S6        30.46S
ANN ARBOR      MOCLDY   -13 -16  86 SW3       30.49R
BAD AXE        MOCLDY    -3  -7  83 S5        30.44F
DETROIT CITY   PTCLDY    10   0  63 W3        30.50F
DETROIT        PTCLDY     7  -1  70 CALM      30.51S
FLINT          PTCLDY    -4 -10  75 SW6       30.48R
GROSSE ILE     MOCLDY     5  -2  72 CALM      30.50S
HILLSDALE      MOCLDY     1  -3  83 CALM      30.46S
HOWELL         PTCLDY     1  -2  85 SW3       30.46S

CITY           SKY/WX    TMP DP  RH WIND       PRES   REMARKS
JACKSON        MOCLDY    -1  -5  82 SW3       30.47S
LAMBERTVILLE   PTCLDY     3  -2  78 CALM      30.52S
LANSING        MOCLDY     5   0  79 S6        30.47F
LAPEER         NOT AVBL
MASON          MOCLDY    -4  -8  82 CALM      30.47S
MT. CLEMENS    PTCLDY     0  -5  78 S1        30.47F
PONTIAC        PTCLDY    -2  -8  76 CALM      30.45S
PORT HOPE        N/A      3  -5  69 SW5       30.43F
PORT HURON     MOCLDY    -9 -13  84 CALM      30.49F
TRI CITIES     PTCLDY     4  -2  76 S8        30.45F
YPSILANTI      MOCLDY     3  -5  69 SE6       30.50S
$$
MIZ043>046-050>051-056>058-064>065-071>073-077>080-060900-
SOUTHWEST LOWER MICHIGAN

CITY           SKY/WX    TMP DP  RH WIND       PRES   REMARKS
BATTLE CREEK   MOCLDY     4  -1  80 SW8       30.47F
BENTON HARBOR  PTCLDY     7   2  80 S7        30.50S
BIG RAPIDS     MOCLDY    -3  -6  89 CALM      30.39F
COLDWATER      MOCLDY    -2  -6  83 SW3       30.48F
HOLLAND        CLOUDY     7   2  80 S8        30.48S
GRAND RAPIDS   MOCLDY     6   1  80 S9        30.45F
KALAMAZOO      PTCLDY     2  -3  80 S7        30.48F
MARSHALL       MOCLDY   N/A N/A N/A SW3       30.47F
MUSKEGON       CLOUDY    16   7  67 W9        30.45F
$$
MIZ016>042-060900-
NORTHERN LOWER MICHIGAN

CITY           SKY/WX    TMP DP  RH WIND       PRES   REMARKS
ALPENA         MOCLDY    -1  -7  75 SW6       30.37F
BEAVER ISLAND  CLEAR      9   2  74 SW9       30.31F
BELLAIRE       CLEAR     -5  -9  84 CALM      30.38F
CADILLAC       PTCLDY    -1  -4  87 SW5       30.32F
CHARLEVOIX     CLEAR      7   0  73 CALM      30.37S
FRANKFORT      SUNNY     16   5  62 W9        30.37F
GAYLORD        PTCLDY     2  -2  83 SW9       30.29F
GRAYLING       PTCLDY     2  -2  81 SW5       30.33F
HARBOR SPRINGS CLEAR      4  -1  79 CALM      30.33F
HOUGHTON LAKE  PTCLDY     2  -3  80 SW6       30.35F
MANISTEE       MOCLDY     1  -2  85 E3        30.39F
OSCODA         MOCLDY    -6  -9  83 S7        30.41F
PELLSTON       PTCLDY     1  -3  83 CALM      30.32F
TRAVERSE CITY  PTCLDY     6   0  76 S3        30.36F
$$
MIZ007>008-015-060900-
EASTERN UPPER MICHIGAN

CITY           SKY/WX    TMP DP  RH WIND       PRES   REMARKS
KINROSS        PTCLDY     1   0  92 S6        30.28F
MACKINAC ISLAN PTCLDY     5   0  79 S12       30.30F WCI -11
NEWBERRY       PTCLDY    -2  -4  89 S8        30.24F
S. S. MARIE      N/A     -4 -10  75 E5        30.28F
$$
MIZ004>006-011>014-085-060900-
CENTRAL UPPER MICHIGAN

CITY           SKY/WX    TMP DP  RH WIND       PRES   REMARKS
MANISTIQUE     PTCLDY     5  -6  60 SW6       30.28F
ESCANABA       CLEAR      1  -9  60 SW7       30.31F
MENOMINEE      PTCLDY     3  -9  55 SW9       30.33F
SAWYER-GWINN   CLEAR      1 -11  58 SW7       30.19F
$$
MIZ001>003-009>011-084-060900-
WESTERN UPPER MICHIGAN

CITY           SKY/WX    TMP DP  RH WIND       PRES   REMARKS
IRON MOUNTAIN  PTCLDY     3 -10  54 SW5       30.22F
HOUGHTON       PTCLDY     3 -10  54 SW9       30.12F
COPPER HARBOR    N/A      7  -9  48 W8        30.14F
IRONWOOD       CLEAR      5  -2  72 SW10G18   30.12F WCI -10
$$

ABBREVIATIONS USED IN REMARKS
   TC - TEMPERATURE IN CELSIUS
  WCI - WIND CHILL INDEX
   HX - HEAT INDEX
  VSB - VISIBILITY



USA.gov is the U.S. government's official web portal to all federal, state and local government web resources and services.